Pagina principale
METAR-TAF:

METAR-TAF

Aeroporti :

Le Luc, Francia

latitudine: 43-23N, longitudine: 006-23E, altezza: 80 m

Osservazione

Il bollettino è stato emesso 1 ora e 45 minuti fa, alle 05:00 UTC
Vento 7 kt da ovest, variando fra sud/sud-ovest e nord/nord-ovest
Temperature 21°C
Umidità 43%
Pressione 1007 hPa
Poco nuvoloso ad un'altezza di 5000 ft

METAR: LFMC 260500Z 26007KT 210V340 FEW050 21/08 Q1007

Ora: 08:45 (06:45 UTC)


TAF: mancante

Osservazioni e previsioni meteorologiche di più di 4000 aeroporti (messaggi METAR e TAF).

Le stazioni disponibili sono rappresentate dai dischi gialli e rossi sulla carta.

Puntare il mouse per vedere il nome della stazione.

Clicca sopra per visualizzare le osservazioni e previsioni meteorologiche.

Per cambiare la mappa : fare clic sui pulsanti verdi con una croce nera per ingrandire, il pulsante verde con un trattino per diminuire, o sulla freccia verde per le mappe adiacenti.


METAR-TAF: